Regional Weather Roundup
Issued by NWS

Home | Current Version | Previous Version | Graphics & Text | Print | Product List | Glossary On
Versions: 1 2 3 4 5 6 7 8 9 10 11 12 13 14 15 16 17 18 19 20 21 22 23 24 25 26 27 28 29 30 31 32 33 34 35 36 37 38 39 40 41 42 43 44 45 46 47 48 49 50
000
ASUS43 KTOP 291059
RWRKS

WEATHER ROUNDUP FOR KANSAS
NATIONAL WEATHER SERVICE GOODLAND KS
600 AM CDT TUE JUL 29 2014

NOTE:  "FAIR" INDICATES FEW OR NO CLOUDS BELOW 12,000 FEET WITH NO
SIGNIFICANT WEATHER AND/OR OBSTRUCTIONS TO VISIBILITY.

KSZ001>006-013>018-027>032-041>047-291200-
NORTHWEST KANSAS

CITY           SKY/WX    TMP DP  RH WIND       PRES   REMARKS
GOODLAND       CLEAR     60  58  92 S8        30.20F
HAYS           CLEAR     61  54  77 E9        30.20R
HILL CITY      CLEAR     60  55  83 NE5       30.20S
RUSSELL        CLEAR     63  55  75 E9        30.18S
$$

KSZ061>065-074>080-084>089-291200-
SOUTHWEST KANSAS

CITY           SKY/WX    TMP DP  RH WIND       PRES   REMARKS
DODGE CITY     CLEAR     62  56  80 SW7       30.20S
ELKHART          N/A     63  59  87 S14         N/A
GARDEN CITY    CLEAR     62  57  83 SE6       30.19F
GREAT BEND     CLEAR     63  54  72 SE7       30.18S
LIBERAL        MOCLDY    68  57  68 S7        30.22S
PRATT          CLEAR     64  55  72 E5        30.19S
$$

KSZ066>073-081>083-090>101-291200-
SOUTHEAST KANSAS

CITY           SKY/WX    TMP DP  RH WIND       PRES   REMARKS
CHANUTE        MOCLDY    63  58  83 CALM      30.18R
COFFEYVILLE    PTCLDY    63  60  90 CALM      30.16S
HUTCHINSON     CLEAR     61  55  81 E5        30.19S
NEWTON         CLEAR     61  52  72 E5        30.22S
PARSONS        PTCLDY    60  57  89 CALM      30.18R
WICHITA INTL   PTCLDY    66  57  72 E6        30.18R
WICHITA JABRA  CLEAR     61  57  87 E5        30.18S
WINFIELD       CLEAR     65  58  78 E5        30.18S
$$

KSZ007>012-019>026-033>040-048>060-102>105-291200-
NORTHEAST KANSAS

CITY           SKY/WX    TMP DP  RH WIND       PRES   REMARKS
CONCORDIA      CLOUDY    64  61  90 S3        30.19F
EMPORIA        CLOUDY    62  58  86 CALM      30.18S
LAWRENCE       CLEAR     56  53  90 NW6       30.18R
MANHATTAN      CLOUDY    65  57  75 CALM      30.18S
OLATHE IND     CLEAR     59  56  89 NW6       30.18R
OLATHE EXE     CLEAR     61  58  90 CALM      30.16S
SALINA         PTCLDY    65  56  72 CALM      30.20S
TOPEKA BILLARD MOCLDY    62  58  86 NW3       30.19R
TOPEKA FORBES  MOCLDY    62  57  83 CALM      30.18S
$$



USA.gov is the U.S. government's official web portal to all federal, state and local government web resources and services.